| time (UTC) | temp F | wind direction | speed knots | gust knots | rain 1hr in | rain 24hr in | rain mn in | humidity % | barometer mb |
| 20260507072837 | 52 | 8 | 1.7 | 8.7 | 0.00 | 0.00 | 0.00 | 70 | 1016.2 |
| 20260507071837 | 52 | 10 | 3.5 | 7.0 | 0.00 | 0.00 | 0.00 | 78 | 1015.9 |
| 20260507070836 | 51 | 3 | 2.6 | 7.0 | 0.00 | 0.00 | 0.00 | 79 | 1015.9 |
| 20260507065838 | 51 | 8 | 2.6 | 8.7 | 0.00 | 0.00 | 0.00 | 82 | 1016.1 |
| 20260507064837 | 50 | 12 | 5.2 | 7.8 | 0.00 | 0.00 | 0.00 | 84 | 1015.9 |
| 20260507063837 | 49 | 12 | 4.3 | 5.2 | 0.00 | 0.00 | 0.00 | 88 | 1016.0 |
| 20260507061837 | 47 | 2 | 3.5 | 6.1 | 0.00 | 0.00 | 0.00 | 94 | 1015.7 |
| 20260507061324 | 46 | 353 | 3.5 | 4.3 | 0.00 | 0.00 | 0.00 | 97 | 1015.6 |
| 20260507055837 | 45 | 41 | 1.7 | 3.5 | 0.00 | 0.00 | 0.00 | 99 | 1015.6 |
| 20260507054836 | 44 | 14 | 1.7 | 3.5 | 0.00 | 0.00 | 0.00 | 99 | 1015.3 |
| 20260507053839 | 43 | 14 | 0.0 | 3.5 | 0.00 | 0.00 | 0.00 | 99 | 1015.6 |
| 20260507052320 | 42 | 12 | 1.7 | 2.6 | 0.00 | 0.00 | 0.00 | 99 | 1015.2 |
| 20260507050850 | 41 | 30 | 0.0 | 1.7 | 0.00 | 0.00 | 0.00 | 99 | 1015.2 |
| 20260507045838 | 41 | 58 | 1.7 | 1.7 | 0.00 | 0.00 | 0.00 | 99 | 1015.1 |
| 20260507044838 | 41 | 21 | 0.9 | 2.6 | 0.00 | 0.00 | 0.00 | 99 | 1015.0 |
| 20260507043836 | 41 | 59 | 0.0 | 1.7 | 0.00 | 0.00 | 0.00 | 99 | 1015.1 |
| 20260507042836 | 40 | 60 | 1.7 | 1.7 | 0.00 | 0.00 | 0.00 | 99 | 1015.0 |
| 20260507041837 | 40 | 58 | 1.7 | 1.7 | 0.00 | 0.00 | 0.00 | 98 | 1014.8 |
| 20260507040837 | 40 | 40 | 0.0 | 1.7 | 0.00 | 0.00 | 0.00 | 98 | 1014.9 |
| 20260507035836 | 40 | 76 | 0.0 | 1.7 | 0.00 | 0.00 | 0.00 | 98 | 1015.1 |
| 20260507034837 | 40 | 92 | 0.9 | 1.7 | 0.00 | 0.00 | 0.00 | 98 | 1014.8 |
| 20260507033838 | 40 | 25 | 0.0 | 1.7 | 0.00 | 0.00 | 0.00 | 98 | 1014.6 |
| 20260507032313 | 40 | 75 | 0.0 | 1.7 | 0.00 | 0.00 | 0.00 | 97 | 1014.7 |
| 20260507030836 | 40 | 40 | 0.0 | 1.7 | 0.00 | 0.00 | 0.00 | 97 | 1014.4 |
| 20260507025838 | 39 | 58 | 0.9 | 1.7 | 0.00 | 0.00 | 0.00 | 97 | 1014.5 |
| 20260507024837 | 40 | 42 | 0.0 | 2.6 | 0.00 | 0.00 | 0.00 | 97 | 1014.6 |
| 20260507023836 | 40 | 251 | 1.7 | 2.6 | 0.00 | 0.00 | 0.00 | 97 | 1014.4 |
| 20260507022836 | 41 | 320 | 1.7 | 2.6 | 0.00 | 0.00 | 0.00 | 97 | 1014.4 |
| 20260507021837 | 41 | 346 | 0.0 | 1.7 | 0.00 | 0.00 | 0.00 | 96 | 1014.1 |
| 20260507020837 | 41 | 40 | 1.7 | 1.7 | 0.00 | 0.00 | 0.00 | 96 | 1014.4 |
| 20260507015836 | 42 | 42 | 0.9 | 1.7 | 0.00 | 0.00 | 0.00 | 96 | 1014.2 |
| 20260507014333 | 42 | 154 | 0.0 | 0.9 | 0.00 | 0.00 | 0.00 | 95 | 1014.1 |
| 20260507013310 | 42 | 113 | 0.0 | 1.7 | 0.00 | 0.00 | 0.00 | 94 | 1014.0 |
| 20260507011849 | 42 | 30 | 0.9 | 2.6 | 0.00 | 0.00 | 0.00 | 94 | 1013.8 |
| 20260507010837 | 42 | 351 | 1.7 | 2.6 | 0.00 | 0.00 | 0.00 | 93 | 1014.1 |
| 20260507005838 | 43 | 343 | 1.7 | 3.5 | 0.00 | 0.00 | 0.00 | 93 | 1014.0 |
| 20260507004837 | 43 | 5 | 2.6 | 5.2 | 0.00 | 0.00 | 0.00 | 93 | 1014.1 |
| 20260507003836 | 43 | 16 | 4.3 | 6.1 | 0.00 | 0.00 | 0.00 | 92 | 1014.1 |
| 20260507002837 | 44 | 11 | 4.3 | 7.0 | 0.00 | 0.00 | 0.00 | 92 | 1014.0 |
| 20260507001837 | 44 | 13 | 5.2 | 7.8 | 0.00 | 0.00 | 0.00 | 92 | 1014.1 |
| 20260507000838 | 44 | 10 | 5.2 | 7.8 | 0.00 | 0.00 | 0.00 | 92 | 1013.9 |
| 20260506235836 | 44 | 15 | 5.2 | 7.0 | 0.00 | 0.00 | 0.00 | 93 | 1013.7 |
| 20260506234837 | 44 | 15 | 5.2 | 7.0 | 0.00 | 0.00 | 0.00 | 93 | 1014.0 |
| 20260506233837 | 44 | 11 | 5.2 | 6.1 | 0.00 | 0.00 | 0.00 | 93 | 1013.9 |
| 20260506232837 | 44 | 13 | 3.5 | 7.0 | 0.00 | 0.00 | 0.00 | 93 | 1013.9 |
| 20260506231836 | 44 | 14 | 4.3 | 7.8 | 0.00 | 0.00 | 0.00 | 93 | 1013.7 |
| 20260506230836 | 44 | 16 | 6.1 | 7.8 | 0.00 | 0.00 | 0.00 | 93 | 1013.8 |
| 20260506225838 | 45 | 4 | 7.0 | 7.8 | 0.00 | 0.00 | 0.00 | 93 | 1013.6 |
| 20260506223837 | 45 | 3 | 4.3 | 7.8 | 0.00 | 0.00 | 0.00 | 92 | 1013.8 |
| 20260506222837 | 45 | 19 | 5.2 | 8.7 | 0.00 | 0.00 | 0.00 | 92 | 1013.5 |
| 20260506220837 | 46 | 4 | 7.0 | 7.8 | 0.00 | 0.00 | 0.00 | 91 | 1013.4 |
| 20260506215836 | 46 | 7 | 6.1 | 8.7 | 0.00 | 0.00 | 0.00 | 90 | 1013.4 |
| 20260506214836 | 47 | 0 | 7.0 | 10.4 | 0.00 | 0.00 | 0.00 | 89 | 1013.4 |
| 20260506213839 | 47 | 13 | 7.8 | 11.3 | 0.00 | 0.00 | 0.00 | 89 | 1013.3 |
| 20260506213323 | 47 | 12 | 6.1 | 9.6 | 0.00 | 0.00 | 0.00 | 88 | 1013.1 |
| 20260506212313 | 48 | 9 | 7.8 | 11.3 | 0.00 | 0.00 | 0.00 | 87 | 1013.2 |
| 20260506205838 | 49 | 18 | 5.2 | 10.4 | 0.00 | 0.00 | 0.00 | 83 | 1012.8 |
| 20260506203837 | 49 | 1 | 7.0 | 10.4 | 0.00 | 0.00 | 0.00 | 80 | 1012.8 |
| 20260506202320 | 50 | 357 | 6.1 | 10.4 | 0.00 | 0.00 | 0.00 | 77 | 1012.8 |
| 20260506201318 | 50 | 7 | 6.1 | 10.4 | 0.00 | 0.00 | 0.00 | 78 | 1012.7 |
| 20260506195836 | 50 | 9 | 7.8 | 9.6 | 0.00 | 0.00 | 0.00 | 79 | 1012.4 |
| 20260506194837 | 51 | 9 | 7.0 | 9.6 | 0.00 | 0.00 | 0.00 | 77 | 1012.6 |
| 20260506193837 | 51 | 18 | 4.3 | 9.6 | 0.00 | 0.00 | 0.00 | 77 | 1012.3 |
| 20260506192837 | 51 | 14 | 5.2 | 10.4 | 0.00 | 0.00 | 0.00 | 77 | 1012.1 |
| 20260506191837 | 51 | 0 | 7.0 | 9.6 | 0.00 | 0.00 | 0.00 | 76 | 1012.0 |
| 20260506190837 | 52 | 4 | 7.0 | 10.4 | 0.00 | 0.00 | 0.00 | 73 | 1011.9 |
| 20260506190325 | 52 | 5 | 7.0 | 10.4 | 0.00 | 0.00 | 0.00 | 73 | 1011.6 |
| 20260506184836 | 53 | 13 | 7.8 | 12.2 | 0.00 | 0.00 | 0.00 | 73 | 1011.7 |
| 20260506183837 | 53 | 8 | 7.8 | 13.0 | 0.00 | 0.00 | 0.00 | 73 | 1011.5 |
| 20260506182837 | 53 | 4 | 8.7 | 12.2 | 0.00 | 0.00 | 0.00 | 72 | 1011.6 |
| 20260506180837 | 54 | 17 | 8.7 | 15.6 | 0.00 | 0.00 | 0.00 | 73 | 1011.3 |
| 20260506180315 | 54 | 5 | 8.7 | 14.8 | 0.00 | 0.00 | 0.00 | 72 | 1011.1 |
| 20260506175322 | 54 | 10 | 7.8 | 12.2 | 0.00 | 0.00 | 0.00 | 71 | 1011.0 |
| 20260506173837 | 54 | 355 | 7.8 | 11.3 | 0.00 | 0.00 | 0.00 | 72 | 1010.8 |
| 20260506172836 | 54 | 17 | 5.2 | 8.7 | 0.00 | 0.00 | 0.00 | 72 | 1010.8 |
| 20260506171837 | 54 | 35 | 4.3 | 4.3 | 0.00 | 0.00 | 0.00 | 72 | 1010.6 |
| 20260506170837 | 54 | 116 | 0.9 | 4.3 | 0.00 | 0.00 | 0.00 | 70 | 1010.8 |
| 20260506165839 | 54 | 17 | 0.9 | 8.7 | 0.00 | 0.00 | 0.00 | 70 | 1010.8 |
| 20260506165315 | 55 | 75 | 5.2 | 9.6 | 0.00 | 0.00 | 0.00 | 68 | 1010.7 |
| 20260506163836 | 55 | 100 | 1.7 | 7.0 | 0.00 | 0.00 | 0.00 | 68 | 1010.8 |
| 20260506162836 | 55 | 75 | 4.3 | 4.3 | 0.00 | 0.00 | 0.00 | 68 | 1010.6 |
| 20260506161838 | 55 | 66 | 2.6 | 5.2 | 0.00 | 0.00 | 0.00 | 65 | 1010.5 |
| 20260506160836 | 55 | 39 | 3.5 | 7.8 | 0.00 | 0.00 | 0.00 | 64 | 1010.5 |
| 20260506155850 | 56 | 54 | 1.7 | 7.0 | 0.00 | 0.00 | 0.00 | 62 | 1010.5 |
| 20260506154836 | 56 | 53 | 5.2 | 9.6 | 0.00 | 0.00 | 0.00 | 61 | 1010.4 |
| 20260506153838 | 56 | 77 | 8.7 | 14.8 | 0.00 | 0.00 | 0.00 | 60 | 1010.6 |
| 20260506153314 | 56 | 68 | 2.6 | 10.4 | 0.00 | 0.00 | 0.00 | 60 | 1010.3 |
| 20260506151836 | 56 | 23 | 2.6 | 11.3 | 0.00 | 0.00 | 0.00 | 58 | 1010.4 |
| 20260506150836 | 56 | 78 | 3.5 | 13.9 | 0.00 | 0.00 | 0.00 | 56 | 1010.4 |
| 20260506145838 | 56 | 83 | 2.6 | 11.3 | 0.00 | 0.00 | 0.00 | 54 | 1010.2 |
| 20260506144836 | 56 | 77 | 7.0 | 11.3 | 0.00 | 0.00 | 0.00 | 52 | 1010.2 |
| 20260506143837 | 56 | 80 | 6.1 | 10.4 | 0.00 | 0.00 | 0.00 | 53 | 1010.3 |
| 20260506143318 | 56 | 126 | 3.5 | 10.4 | 0.00 | 0.00 | 0.00 | 54 | 1010.1 |
| 20260506141838 | 57 | 64 | 7.8 | 11.3 | 0.00 | 0.00 | 0.00 | 53 | 1010.3 |
| 20260506141310 | 57 | 71 | 3.5 | 11.3 | 0.00 | 0.00 | 0.00 | 52 | 1010.0 |
| 20260506135837 | 57 | 60 | 2.6 | 10.4 | 0.00 | 0.00 | 0.00 | 47 | 1010.2 |
| 20260506135312 | 58 | 80 | 5.2 | 9.6 | 0.00 | 0.00 | 0.00 | 49 | 1010.2 |
| 20260506133838 | 58 | 235 | 1.7 | 8.7 | 0.00 | 0.00 | 0.00 | 55 | 1010.3 |
| 20260506133312 | 59 | 15 | 5.2 | 10.4 | 0.00 | 0.00 | 0.00 | 54 | 1010.1 |
| 20260506131836 | 59 | 49 | 5.2 | 13.0 | 0.00 | 0.00 | 0.00 | 51 | 1010.1 |
| 20260506130836 | 59 | 98 | 3.5 | 8.7 | 0.00 | 0.00 | 0.00 | 53 | 1010.0 |
| 20260506125836 | 58 | 88 | 3.5 | 13.0 | 0.00 | 0.00 | 0.00 | 52 | 1009.9 |
| 20260506124836 | 58 | 135 | 4.3 | 11.3 | 0.00 | 0.00 | 0.00 | 55 | 1010.0 |
| 20260506123837 | 58 | 77 | 7.0 | 11.3 | 0.00 | 0.00 | 0.00 | 54 | 1010.0 |
| 20260506122836 | 58 | 96 | 3.5 | 12.2 | 0.00 | 0.00 | 0.00 | 56 | 1009.8 |
| 20260506121839 | 57 | 13 | 5.2 | 12.2 | 0.00 | 0.00 | 0.00 | 56 | 1009.9 |
| 20260506120837 | 58 | 17 | 4.3 | 13.0 | 0.00 | 0.00 | 0.00 | 57 | 1010.1 |
| 20260506115837 | 57 | 358 | 6.1 | 11.3 | 0.00 | 0.00 | 0.00 | 58 | 1009.9 |
| 20260506114836 | 57 | 77 | 5.2 | 10.4 | 0.00 | 0.00 | 0.00 | 59 | 1009.9 |
| 20260506114317 | 57 | 71 | 2.6 | 14.8 | 0.00 | 0.00 | 0.00 | 60 | 1009.8 |
| 20260506112836 | 57 | 357 | 8.7 | 13.0 | 0.00 | 0.00 | 0.00 | 61 | 1009.9 |
| 20260506112325 | 57 | 20 | 3.5 | 12.2 | 0.00 | 0.00 | 0.00 | 60 | 1010.0 |
| 20260506110836 | 57 | 34 | 3.5 | 12.2 | 0.00 | 0.00 | 0.00 | 62 | 1009.9 |
| 20260506105832 | 57 | 17 | 4.3 | 10.4 | 0.00 | 0.00 | 0.00 | 61 | 1009.8 |
| 20260506104834 | 56 | 92 | 7.0 | 12.2 | 0.00 | 0.00 | 0.00 | 60 | 1009.7 |
| 20260506104318 | 55 | 32 | 7.0 | 15.6 | 0.00 | 0.00 | 0.00 | 71 | 1009.7 |
| 20260506102833 | 56 | 21 | 6.1 | 12.2 | 0.00 | 0.00 | 0.00 | 76 | 1009.8 |
| 20260506100831 | 55 | 10 | 7.8 | 14.8 | 0.00 | 0.00 | 0.00 | 73 | 1009.8 |
| 20260506095831 | 56 | 104 | 1.7 | 13.0 | 0.00 | 0.00 | 0.00 | 72 | 1009.7 |
| 20260506094825 | 55 | 19 | 7.8 | 15.6 | 0.00 | 0.00 | 0.00 | 76 | 1009.4 |
| 20260506093822 | 55 | 37 | 2.6 | 14.8 | 0.00 | 0.00 | 0.00 | 79 | 1009.7 |
| 20260506092815 | 54 | 5 | 11.3 | 15.6 | 0.00 | 0.00 | 0.00 | 80 | 1009.5 |
| 20260506091814 | 55 | 3 | 6.1 | 14.8 | 0.00 | 0.00 | 0.00 | 80 | 1009.6 |
| 20260506090815 | 54 | 12 | 5.2 | 13.9 | 0.00 | 0.00 | 0.00 | 82 | 1009.5 |
| 20260506085814 | 54 | 12 | 5.2 | 13.9 | 0.00 | 0.00 | 0.00 | 82 | 1009.3 |
| 20260506084815 | 55 | 357 | 11.3 | 13.0 | 0.00 | 0.00 | 0.00 | 81 | 1009.4 |
| 20260506083815 | 54 | 328 | 1.7 | 10.4 | 0.00 | 0.00 | 0.00 | 81 | 1009.3 |
| 20260506082816 | 53 | 15 | 9.6 | 13.0 | 0.00 | 0.00 | 0.00 | 83 | 1009.3 |
| 20260506081815 | 54 | 34 | 1.7 | 10.4 | 0.00 | 0.00 | 0.00 | 84 | 1009.3 |
| 20260506080814 | 53 | 44 | 3.5 | 11.3 | 0.00 | 0.00 | 0.00 | 85 | 1009.3 |